Weather in Castanhal

Brazil     1°17′09″S   47°54′49″W
temp.,
°C
wind,
m/s
gust,
m/s
humid.,
%
clouds,
%
prec.,
mm/h
press.,
hPa
HPBL,
m
22 september, wed
wed2200:00+22ne189834 0.0 1012228
03:00+22ne199925 0.0 1009300
06:00+22ne199937 0.0 1010290
09:00+28ene256942 0.0 1012920
12:00+34e344845 0.0 10111872
15:00+34e344399 0.0 10082146
18:00+27nne277339 0.0 1008269
21:00+25ne29856 0.0 1011556
23 september, thu
thu2300:00+23ene119549 0.0 101213
03:00+22ne189915 0.0 1010229
06:00+22ne199923 0.0 1010295
09:00+29ene36635 0.0 10121083
12:00+34ene35415 0.0 10111817
15:00+35ene344099 0.0 10082150
18:00+29ne396047 0.0 1009557
21:00+26ne3117996 0.0 1012670
24 september, fri
fri2400:00+23nne1196100 0.0 101220
03:00+23nne189936 0.0 1010273
06:00+23e149932 0.0 1012114
09:00+29e376751 0.0 10141284
12:00+34e364242 0.1 10122210
15:00+31e2756100 0.1 1010387
18:00+28ne286491 0.0 1011509
21:00+25nne298685 0.3 1012432
25 september, sat
sat2500:00+24ne2108929 0.0 1012548
03:00+24ne210915 0.0 1010643
06:00+23e1891100 0.7 1012392
09:00+29ene486298 1.2 10141273
12:00+34e474232 0.0 10122198
15:00+33e464629 0.0 10102196
18:00+28ne396911 0.0 1010733
21:00+26ne312784 0.0 1012753
26 september, sun
sun2600:00+24ne211865 0.0 1011670
03:00+24ene2109014 0.0 1010716
06:00+23ese129542 0.0 101257
09:00+27e3873100 0.1 10141126
12:00+31e365747 0.0 10131472
15:00+34e244472 0.0 10101958
18:00+24nnw249156 2.5 101178
21:00+24ne211924 2.6 1012466